Location: Humble ISD Astronomical Observatory
(29.9680°N, 95.2620°W)
Time: 00:51:45
(UTC-05:00)

Tiangong 2 - Pass Details

Date: 29 March 2019
Orbit: 378 x 390 km, 42.8° (Epoch: 24 April)

Event Time Altitude Azimuth Distance (km) Brightness Sun altitude
Rises 20:13:05 0° 225° (SW) 2,232 5.5 -8.4°
Reaches altitude 10° 20:15:10 10° 219° (SW) 1,381 4.3 -8.8°
Maximum altitude 20:18:11 49° 143° (SE) 494 1.3 -9.5°
Enters shadow 20:20:58 12° 68° (ENE) 1,283 3.2 -10.1°
